[[{"header":{"parameterUnit":"m.s-1","parameterCategory":1,"la1":30.2992,"la2":30.254,"lo1":-89.0895,"lo2":-89.0443,"dy":0.0025,"dx":0.0025,"nx":19,"ny":19,"refTime":"2026-04-03T21:00:00:Z","depth":0,"parameterNumber":2,"parameterNumberName":"U-component_of_WINDS"},"data":[0,0,0,-3.2634,-3.2636,-3.2763,-3.2764,-3.2924,-3.2925,0,0,0,0,0,0,0,0,0,0,0,-3.2594,-3.2595,-3.2633,-3.2636,-3.2763,-3.2764,-3.2923,-3.2925,0,0,0,0,0,0,0,0,0,0,0,-3.2593,-3.2594,-3.2596,-3.2637,-3.2763,-3.2764,-3.2923,-3.2828,0,0,0,0,0,0,0,0,0,0,-3.2705,-3.2666,-3.2594,-3.2596,-3.2638,-3.2763,-3.2764,-3.2824,-3.2834,-3.2865,0,-3.2891,0,-3.2911,-3.2936,-3.2936,0,0,0,-3.2638,-3.2658,-3.2694,-3.2596,-3.2639,-3.2763,-3.2707,-3.283,-3.2841,-3.2879,-3.2893,-3.2899,-3.2913,-3.2937,-3.2937,-3.3107,-3.3108,0,0,-3.2631,-3.2615,-3.2686,-3.2701,-3.2681,-3.2702,-3.271,-3.2837,-3.2852,-3.2894,-3.2903,-3.2916,-3.2938,-3.2939,-3.3106,-3.3107,0,0,0,-3.261,-3.261,-3.2644,-3.2695,-3.2718,-3.2706,-3.2715,-3.2846,-3.2858,-3.2905,-3.2918,-3.2938,-3.294,-3.3105,-3.3107,-3.3125,0,0,0,-3.2606,-3.2598,-3.264,-3.2632,-3.2715,-3.2783,-3.2722,-3.285,-3.2864,-3.2917,-3.2939,-3.2942,-3.3105,-3.3106,-3.3122,-3.3135,0,0,0,-3.2586,-3.2596,-3.2613,-3.2631,-3.2685,-3.2782,-3.2801,-3.2853,-3.2872,-3.2936,-3.2942,-3.3104,-3.3106,-3.3121,-3.3132,-3.3174,0,0,0,-3.2561,-3.2628,-3.2613,-3.2694,-3.2684,-3.2793,-3.2801,-3.2883,-3.294,-3.2939,-3.3105,-3.3106,-3.312,-3.313,-3.3172,-3.3204,-3.3217,0,0,-3.2637,-3.2637,-3.2685,-3.2676,-3.2783,-3.2774,-3.2885,-3.2952,-3.2974,-3.3062,-3.3066,-3.3123,-3.3132,-3.3173,-3.3298,-3.3308,0,0,0,-3.2704,-3.2738,-3.277,-3.2824,-3.2878,-3.2924,-3.2977,-3.3003,-3.3078,-3.3015,-3.3151,-3.3157,-3.3182,-3.3198,-3.3207,-3.3229,-3.3114,-3.3114,-3.3114,-3.2787,-3.2811,-3.2893,-3.2932,-3.2984,-3.3038,-3.3083,-3.3126,-3.3135,-3.3167,-3.3192,-3.3265,-3.3284,-3.329,-3.3313,-3.3214,-3.3214,-3.3214,-3.3214,-3.2898,-3.295,-3.2962,-3.3045,-3.307,-3.3141,-3.3197,-3.3201,-3.327,-3.3248,-3.3271,-3.3242,-3.33,-3.3321,-3.3216,-3.3215,-3.3215,-3.3215,-3.3215,-3.2953,-3.2982,-3.3012,-3.3093,-3.3152,-3.3191,-3.3257,-3.3279,-3.3299,-3.3323,-3.3351,-3.3351,-3.3351,-3.3335,-3.3336,-3.3336,-3.3336,-3.3336,-3.3336,-3.2997,-3.303,-3.3083,-3.3147,-3.3184,-3.3237,-3.3294,-3.3332,-3.3379,-3.3389,-3.339,-3.3394,-3.3303,-3.3277,-3.334,-3.334,-3.3339,-3.3339,-3.3338,-3.3097,-3.3078,-3.3159,-3.3196,-3.3273,-3.3331,-3.3359,-3.3434,-3.3469,-3.3501,-3.3503,-3.3432,-3.3433,-3.3427,-3.3406,-3.3498,-3.3498,-3.3498,-3.3498,-3.3141,-3.3145,-3.3232,-3.3291,-3.3352,-3.3385,-3.3477,-3.3523,-3.3567,-3.359,-3.3581,-3.3557,-3.3549,-3.3555,-3.3545,-3.3526,-3.3647,-3.3647,-3.3647,-3.3203,-3.3214,-3.3286,-3.3329,-3.3392,-3.3445,-3.3531,-3.3599,-3.3647,-3.3654,-3.3609,-3.3602,-3.3563,-3.3549,-3.3552,-3.3537,-3.3502,0,0]},{"header":{"parameterUnit":"m.s-1","parameterCategory":1,"la1":30.2992,"la2":30.254,"lo1":-89.0895,"lo2":-89.0443,"dy":0.0025,"dx":0.0025,"nx":19,"ny":19,"refTime":"2026-04-03T21:00:00:Z","depth":0,"parameterNumber":3,"parameterNumberName":"V-component_of_WINDS"},"data":[0,0,0,2.556,2.5562,2.5648,2.5648,2.575,2.575,0,0,0,0,0,0,0,0,0,0,0,2.5531,2.5531,2.556,2.5562,2.5648,2.5648,2.5749,2.575,0,0,0,0,0,0,0,0,0,0,0,2.553,2.5531,2.5532,2.5562,2.5648,2.5648,2.5749,2.5687,0,0,0,0,0,0,0,0,0,0,2.5605,2.5574,2.5531,2.5532,2.5563,2.5647,2.5648,2.5684,2.5691,2.5708,0,2.5722,0,2.5738,2.5757,2.5757,0,0,0,2.5565,2.5568,2.5596,2.5532,2.5564,2.5647,2.561,2.5688,2.5696,2.5716,2.5724,2.5728,2.574,2.5757,2.5758,2.5849,2.585,0,0,2.556,2.5543,2.559,2.56,2.5588,2.5607,2.5612,2.5693,2.5699,2.5724,2.573,2.5741,2.5758,2.5759,2.5849,2.5849,0,0,0,2.5545,2.554,2.5565,2.5596,2.5612,2.5609,2.5616,2.5695,2.5705,2.5731,2.5743,2.5759,2.576,2.5849,2.5849,2.585,0,0,0,2.5542,2.5531,2.5563,2.5554,2.5611,2.5655,2.5616,2.5699,2.5709,2.5742,2.5759,2.5761,2.5848,2.5849,2.5849,2.5852,0,0,0,2.5526,2.5529,2.554,2.5553,2.5589,2.5654,2.5669,2.5702,2.5716,2.5757,2.5761,2.5848,2.5849,2.5848,2.5851,2.5873,0,0,0,2.5504,2.5537,2.554,2.5582,2.5588,2.5654,2.5668,2.5717,2.5753,2.5759,2.5848,2.5849,2.5848,2.585,2.5872,2.5888,2.5893,0,0,2.5537,2.5541,2.5566,2.5572,2.5633,2.5642,2.5704,2.575,2.5768,2.5821,2.5824,2.5849,2.5851,2.5872,2.5927,2.5931,0,0,0,2.5571,2.5589,2.5609,2.5644,2.5682,2.5715,2.5755,2.5773,2.5819,2.5793,2.5863,2.5865,2.5878,2.5886,2.589,2.5903,2.5852,2.5852,2.5852,2.5591,2.5616,2.566,2.5695,2.5728,2.5771,2.58,2.5831,2.5843,2.586,2.5875,2.5906,2.5915,2.5918,2.5931,2.5885,2.5885,2.5885,2.5885,2.5641,2.5672,2.5691,2.5741,2.5766,2.5808,2.5851,2.5859,2.5902,2.5895,2.5908,2.5899,2.5921,2.5934,2.5886,2.5886,2.5886,2.5886,2.5886,2.5658,2.5677,2.57,2.5754,2.5793,2.5827,2.5868,2.5889,2.5908,2.5921,2.5941,2.5941,2.5944,2.5929,2.5929,2.5929,2.593,2.593,2.593,2.5665,2.5692,2.5725,2.5771,2.5797,2.5834,2.5879,2.5905,2.594,2.5951,2.5952,2.5963,2.5919,2.5908,2.5931,2.5931,2.5931,2.5931,2.5931,2.5707,2.5702,2.5753,2.578,2.5837,2.5875,2.5902,2.5954,2.5979,2.5999,2.6009,2.5973,2.5978,2.5975,2.5966,2.6003,2.6003,2.6003,2.6003,2.5721,2.5726,2.5785,2.5827,2.587,2.5901,2.5958,2.5995,2.6031,2.6048,2.6046,2.6035,2.6032,2.6039,2.6035,2.6027,2.6078,2.6078,2.6078,2.5749,2.576,2.5805,2.5842,2.589,2.593,2.5985,2.6032,2.6071,2.6082,2.6062,2.6058,2.6042,2.6036,2.6044,2.6037,2.6023,0,0]}]]